Change the Weather History Date:

Friday, July 25, 2014

  Actual Average Record
Temperature  
Mean Temperature 70 °F 79 °F  
Max Temperature 83 °F 89 °F 104 °F (1945)
Min Temperature 57 °F 68 °F 54 °F (1948)
Degree Days  
Heating Degree Days 0 0  
Month to date heating degree days 0 0  
Since 1 June heating degree days 0 4  
Since 1 July heating degree days 0 0  
Cooling Degree Days 5 14  
Month to date cooling degree days 256 350  
Year to date cooling degree days 939 842  
Since 1 June cooling degree days 661 670  
Growing Degree Days 20 (Base 50)    
Moisture  
Dew Point 59 °F    
Average Humidity 70    
Maximum Humidity 93    
Minimum Humidity 46    
Precipitation  
Precipitation 0.00 in 0.14 in 1.94 in (2008)
Month to date precipitation 2.04 3.66  
Year to date precipitation 28.92 28.94  
Snow  
Snow 0.00 in 0.00 in - ()
Month to date snowfall 0.0 0.0  
Since 1 June snowfall 0.0 0.0  
Since 1 July snowfall 0.0 0.0  
Snow Depth 0.00 in    
Sea Level Pressure  
Sea Level Pressure 30.02 in    
Wind  
Wind Speed 3 mph (SE)    
Max Wind Speed 10 mph    
Max Gust Speed 14 mph    
Visibility 7 miles    
Events Fog    
T = Trace of Precipitation, MM = Missing Value Source: NWS Daily Summary

Daily Weather History Graph

Daily Weather History Graph

Search for Another Location

Airport or City:

Trip Planner

Search our weather history database for the weather conditions in past years. The results will help you decide how hot, cold, wet, or windy it might be!

Date:

Astronomy

Jul. 25, 2014 Rise Set
Actual Time 5:54 AM CDT 8:08 PM CDT
Civil Twilight 5:25 AM CDT 8:37 PM CDT
Nautical Twilight 4:49 AM CDT 9:13 PM CDT
Astronomical Twilight 4:10 AM CDT 9:52 PM CDT
Moon 4:52 AM CDT (7/25) 7:06 PM CDT (7/25)
Length of Visible Light 15h 12m
Length of Day
14h 13m
Waning Crescent, 1% of the Moon is Illuminated
Jul 25
Waning Crescent
Jul 26
New
Aug 3
First Quarter
Aug 10
Full
Aug 17
Last Quarter

Hourly Weather History & Observations

Time (CDT) Temp. Heat Index Dew Point Humidity Pressure Visibility Wind Dir Wind Speed Gust Speed Precip Events Conditions
12:53 AM 60.1 °F - 57.0 °F 90% 30.02 in 10.0 mi Calm Calm - N/A   Clear
1:53 AM 61.0 °F - 57.9 °F 90% 30.02 in 9.0 mi Calm Calm - N/A   Clear
2:53 AM 59.0 °F - 55.9 °F 90% 30.04 in 7.0 mi Calm Calm - N/A   Clear
3:53 AM 57.9 °F - 55.9 °F 93% 30.04 in 10.0 mi Calm Calm - N/A   Clear
4:48 AM 59.0 °F - 55.4 °F 88% 30.04 in 1.2 mi Calm Calm - N/A   Clear
4:53 AM 57.9 °F - 55.9 °F 93% 30.04 in 0.8 mi Calm Calm - N/A   Clear
5:00 AM 59.0 °F - 55.9 °F 90% 30.04 in 2.5 mi East 3.5 mph - N/A   Clear
5:07 AM 59.0 °F - 55.9 °F 90% 30.04 in 5.0 mi ESE 3.5 mph - N/A   Clear
5:28 AM 59.0 °F - 57.0 °F 93% 30.05 in 1.8 mi Calm Calm - N/A   Clear
5:37 AM 57.9 °F - 55.0 °F 90% 30.05 in 4.0 mi Calm Calm - N/A   Clear
5:53 AM 59.0 °F - 55.9 °F 90% 30.04 in 3.0 mi Calm Calm - N/A   Partly Cloudy
5:56 AM 57.9 °F - 55.9 °F 93% 30.05 in 1.0 mi Calm Calm - N/A   Mist
5:59 AM 57.9 °F - 55.9 °F 93% 30.04 in 0.2 mi Calm Calm - N/A Fog Fog
6:28 AM 60.1 °F - 57.0 °F 90% 30.06 in 1.0 mi Calm Calm - N/A   Mist
6:32 AM 59.0 °F - 57.0 °F 93% 30.06 in 2.5 mi Calm Calm - N/A   Partly Cloudy
6:39 AM 60.1 °F - 57.9 °F 93% 30.06 in 9.0 mi Calm Calm - N/A   Clear
6:53 AM 62.1 °F - 59.0 °F 90% 30.06 in 9.0 mi Calm Calm - N/A   Clear
7:53 AM 66.9 °F - 62.1 °F 84% 30.06 in 8.0 mi Calm Calm - N/A   Clear
8:53 AM 73.0 °F - 62.1 °F 68% 30.07 in 10.0 mi ESE 6.9 mph - N/A   Clear
9:53 AM 75.9 °F - 60.1 °F 58% 30.07 in 10.0 mi SSE 8.1 mph - N/A   Clear
10:53 AM 79.0 °F - 59.0 °F 50% 30.07 in 10.0 mi Calm Calm - N/A   Clear
11:53 AM 80.6 °F 81.5 °F 60.8 °F 51% 30.04 in 10.0 mi SE 4.6 mph - N/A   Clear
12:53 PM 82.9 °F 82.8 °F 59.0 °F 44% 30.04 in 10.0 mi Variable 5.8 mph - N/A   Clear
1:53 PM 81.0 °F 81.6 °F 60.1 °F 49% 30.03 in 10.0 mi WSW 5.8 mph - N/A   Clear
2:53 PM 82.0 °F 82.1 °F 59.0 °F 45% 30.03 in 10.0 mi SSW 3.5 mph - N/A   Clear
3:53 PM 82.0 °F 82.7 °F 61.0 °F 49% 30.06 in 10.0 mi North 5.8 mph - N/A   Clear
4:53 PM 82.0 °F 83.0 °F 62.1 °F 51% 30.02 in 10.0 mi NE 6.9 mph - N/A   Clear
5:53 PM 79.0 °F - 63.0 °F 58% 29.95 in 10.0 mi SSE 6.9 mph - N/A   Clear
6:53 PM 77.0 °F - 63.0 °F 62% 29.91 in 10.0 mi SW 5.8 mph - N/A   Clear
7:53 PM 75.9 °F - 64.0 °F 67% 29.91 in 10.0 mi Calm Calm - N/A   Clear
8:53 PM 71.1 °F - 64.0 °F 78% 29.94 in 10.0 mi Calm Calm - N/A   Clear
9:53 PM 66.9 °F - 63.0 °F 87% 29.95 in 8.0 mi SE 3.5 mph - N/A   Clear
10:53 PM 66.9 °F - 63.0 °F 87% 29.96 in 9.0 mi SE 3.5 mph - N/A   Clear
11:53 PM 68.0 °F - 62.6 °F 83% 29.97 in 9.0 mi SE 3.5 mph - N/A   Clear